EW0772 Weather Reports


time (UTC)temp
F
wind
direction
speed
knots
gust
knots
rain 1hr
in
rain 24hr
in
rain mn
in
humidity
%
barometer
mb
20260510020042 99 76 0.0 4.3 0.00 0.00 0.00 10 1003.3
20260510014539 100 69 2.6 4.3 0.00 0.00 0.00 10 1003.2
20260510013039 100 45 4.3 7.8 0.00 0.00 0.00 10 1003.1
20260510011550 101 76 3.5 7.8 0.00 0.00 0.00 9 1002.9
20260510010047 102 86 5.2 8.7 0.00 0.00 0.00 9 1003.0
20260510004536 102 79 3.5 7.8 0.00 0.00 0.00 9 1003.0
20260510003034 102 360 2.6 7.0 0.00 0.00 0.00 9 1003.2
20260510001533 102 13 3.5 7.0 0.00 0.00 0.00 9 1003.2
20260510000032 102 36 2.6 7.8 0.00 0.00 0.00 8 1003.2
20260509234534 103 360 5.2 10.4 0.00 0.00 0.00 8 1003.4
20260509233031 102 360 7.0 10.4 0.00 0.00 0.00 9 1003.5
20260509231528 102 32 0.9 7.0 0.00 0.00 0.00 9 1003.6
20260509230026 102 24 1.7 9.6 0.00 0.00 0.00 8 1003.8
20260509224525 102 84 4.3 9.6 0.00 0.00 0.00 9 1004.0
20260509223026 102 53 4.3 9.6 0.00 0.00 0.00 9 1004.1
20260509221525 101 360 4.3 10.4 0.00 0.00 0.00 10 1004.4
20260509220020 101 38 3.5 9.6 0.00 0.00 0.00 10 1004.7
20260509214514 101 84 5.2 10.4 0.00 0.00 0.00 11 1004.8
20260509213013 102 360 1.7 7.0 0.00 0.00 0.00 12 1005.0
20260509211515 101 360 4.3 9.6 0.00 0.00 0.00 13 1005.2
20260509210007 100 145 1.7 6.1 0.00 0.00 0.00 15 1005.5
20260509204505 100 360 1.7 6.1 0.00 0.00 0.00 14 1005.8
20260509203003 99 88 2.6 7.8 0.00 0.00 0.00 13 1006.0
20260509201502 99 56 1.7 6.1 0.00 0.00 0.00 12 1006.2
20260509194600 98 24 1.7 6.1 0.00 0.00 0.00 17 1006.5
20260509193056 98 5 1.7 8.7 0.00 0.00 0.00 20 1006.7
20260509191558 97 360 2.6 8.7 0.00 0.00 0.00 18 1006.9
20260509190100 97 86 4.3 8.7 0.00 0.00 0.00 18 1007.0
20260509184553 98 294 0.0 2.6 0.00 0.00 0.00 18 1007.2
20260509183050 96 360 0.0 4.3 0.00 0.00 0.00 19 1007.3
20260509181605 96 307 0.0 1.7 0.00 0.00 0.00 19 1007.6
20260509180044 94 292 0.0 4.3 0.00 0.00 0.00 20 1007.7
20260509174544 94 360 0.9 7.0 0.00 0.00 0.00 20 1007.7
20260509173039 93 254 0.0 2.6 0.00 0.00 0.00 21 1007.8
20260509171536 92 360 0.9 4.3 0.00 0.00 0.00 22 1007.8
20260509170032 91 360 0.9 3.5 0.00 0.00 0.00 23 1007.8
20260509164529 89 360 1.7 6.1 0.00 0.00 0.00 26 1007.8
20260509163035 88 360 0.9 6.1 0.00 0.00 0.00 26 1007.8
20260509161523 87 360 2.6 7.8 0.00 0.00 0.00 29 1007.7
20260509160021 86 360 0.9 7.8 0.00 0.00 0.00 31 1007.8
20260509154517 85 360 4.3 7.8 0.00 0.00 0.00 31 1007.9
20260509153020 84 184 3.5 7.0 0.00 0.00 0.00 33 1007.8
20260509151512 83 360 0.9 4.3 0.00 0.00 0.00 34 1007.8
20260509150008 82 167 0.9 4.3 0.00 0.00 0.00 36 1007.8
20260509144506 82 360 0.9 7.0 0.00 0.00 0.00 36 1007.7
20260509143002 0 0.0 0.0 0.00 0.00 0.00 1007.6
20260509141558 0 0.0 0.0 0.00 0.00 0.00 1007.4
20260509140058 0 0.0 0.0 0.00 0.00 0.00 1007.3
20260509134554 0 0.0 0.0 0.00 0.00 0.00 1007.2
20260509133057 0 0.0 0.0 0.00 0.00 0.00 1007.1
20260509131542 0 0.0 0.0 0.00 0.00 0.00 1007.0
20260509130035 0 0.0 0.0 0.00 0.00 0.00 1006.8
20260509124531 0 0.0 0.0 0.00 0.00 0.00 1006.8
20260509123026 0 0.0 0.0 0.00 0.00 0.00 1006.6
20260509121528 0 0.0 0.0 0.00 0.00 0.00 1006.5
20260509120019 0 0.0 0.0 0.00 0.00 0.00 1006.3
20260509114513 0 0.0 0.0 0.00 0.00 0.00 1006.3
20260509113012 0 0.0 0.0 0.00 0.00 0.00 1006.2
20260509111505 0 0.0 0.0 0.00 0.00 0.00 1006.2
20260509104602 0 0.0 0.0 0.00 0.00 0.00 1006.3
20260509103052 0 0.0 0.0 0.00 0.00 0.00 1006.1
20260509101548 0 0.0 0.0 0.00 0.00 0.00 1006.1
20260509100053 0 0.0 0.0 0.00 0.00 0.00 1006.0
20260509094540 0 0.0 0.0 0.00 0.00 0.00 1006.1
20260509093035 0 0.0 0.0 0.00 0.00 0.00 1006.1
20260509091534 0 0.0 0.0 0.00 0.00 0.00 1006.1
20260509090026 0 0.0 0.0 0.00 0.00 0.00 1006.2
20260509084527 0 0.0 0.0 0.00 0.00 0.00 1006.3
20260509083017 0 0.0 0.0 0.00 0.00 0.00 1006.2
20260509081513 0 0.0 0.0 0.00 0.00 0.00 1006.3
20260509080016 0 0.0 0.0 0.00 0.00 0.00 1006.4
20260509074504 0 0.0 0.0 0.00 0.00 0.00 1006.5
20260509073216 0 0.0 0.0 0.00 0.00 0.00 1006.5
20260509071556 0 0.0 0.0 0.00 0.00 0.00 1006.5
20260509070051 0 0.0 0.0 0.00 0.00 0.00 1006.5
20260509064549 0 0.0 0.0 0.00 0.00 0.00 1006.6
20260509063042 0 0.0 0.0 0.00 0.00 0.00 1006.6
20260509061549 0 0.0 0.0 0.00 0.00 0.00 1006.6
20260509060033 0 0.0 0.0 0.00 0.00 0.00 1006.6
20260509054535 0 0.0 0.0 0.00 0.00 0.00 1006.7
20260509053025 0 0.0 0.0 0.00 0.00 0.00 1006.7
20260509051521 0 0.0 0.0 0.00 0.00 0.00 1006.7
20260509050020 0 0.0 0.0 0.00 0.00 0.00 1006.6
20260509044514 0 0.0 0.0 0.00 0.00 0.00 1006.5
20260509043011 0 0.0 0.0 0.00 0.00 0.00 1006.3
20260509041503 0 0.0 0.0 0.00 0.00 0.00 1006.1
20260509040111 90 134 12.2 22.6 0.00 0.00 0.00 27 1005.9
20260509034600 91 144 9.6 22.6 0.00 0.00 0.00 26 1005.8
20260509033059 92 143 13.0 23.5 0.00 0.00 0.00 25 1005.6
20260509031559 93 156 13.9 23.5 0.00 0.00 0.00 24 1005.5
20260509030057 94 136 13.0 22.6 0.00 0.00 0.00 22 1005.3
20260509024557 95 144 13.0 26.1 0.00 0.00 0.00 21 1005.0
20260509023056 96 145 11.3 17.4 0.00 0.00 0.00 20 1005.0
20260509021556 96 360 11.3 17.4 0.00 0.00 0.00 19 1004.8